Regional Weather Roundup
Issued by NWS Little Rock, AR

Home | Current Version | Previous Version | Text Only | Print | Product List | Glossary Off
Versions: 1 2 3 4 5 6 7 8 9 10 11 12 13 14 15 16 17 18 19 20 21 22 23 24 25 26 27

000
ASUS44 KLZK 041805
RWRLZK

WEATHER ROUNDUP FOR ARKANSAS
NATIONAL WEATHER SERVICE LITTLE ROCK AR
100 PM CDT WED MAY 04 2016

NOTE: "FAIR" INDICATES FEW OR NO CLOUDS BELOW 12,000 FEET WITH NO
SIGNIFICANT WEATHER AND/OR OBSTRUCTIONS TO VISIBILITY.

ARZ001-003-010-029-041900-
NORTHWEST ARKANSAS

CITY           SKY/WX    TMP DP  RH WIND       PRES   REMARKS
FAYETTEVILLE   SUNNY     71  48  43 NW17G25   29.94F
6HR MIN TEMP:  54; 6HR MAX TEMP:  73;

FORT SMITH     SUNNY     78  47  33 W17G26    29.91F
6HR MIN TEMP:  51; 6HR MAX TEMP:  78; 6HR PCP: TRACE;

HARRISON       SUNNY     71  40  32 NW14G23   29.90S
6HR MIN TEMP:  58; 6HR MAX TEMP:  72;

BENTONVILLE    SUNNY     72  37  28 N13G29    29.96S
6HR MIN TEMP:  52; 6HR MAX TEMP:  72;

ROGERS         SUNNY     70  39  32 N14G26    29.95F
6HR MIN TEMP:  50; 6HR MAX TEMP:  70;

SILOAM SPGS    SUNNY    N/A N/A N/A NW21G26   29.97S
HIGHFILL       SUNNY     72  41  32 NW14G22   29.94F
6HR MIN TEMP:  52; 6HR MAX TEMP:  72;

SPRINGDALE     SUNNY     72  45  37 NW12G23   29.96F
$$

ARZ004-005-016-041900-
NORTH CENTRAL ARKANSAS

CITY           SKY/WX    TMP DP  RH WIND       PRES   REMARKS
BATESVILLE     MOSUNNY   75  48  38 NW10G26   29.82F
6HR MIN TEMP:  54; 6HR MAX TEMP:  77;

FLIPPIN        SUNNY    N/A N/A N/A N12G23    29.84F
MTN HOME       SUNNY     72  39  30 NW8       29.86S
6HR MIN TEMP:  50; 6HR MAX TEMP:  72;

$$

ARZ040-041-041900-
WEST CENTRAL ARKANSAS

CITY           SKY/WX    TMP DP  RH WIND       PRES   REMARKS
MENA           SUNNY     77  46  33 NW12G18   29.95F
MOUNT IDA      SUNNY     77  49  37 NW8G24    29.89
6HR MIN TEMP:  46; 6HR MAX TEMP:  77;

$$

ARZ009-017-025-026-028-041900-
NORTHEAST ARKANSAS

CITY           SKY/WX    TMP DP  RH WIND       PRES   REMARKS
CORNING          N/A     73  46  38 NW16G24   29.79S
JONESBORO      LGT RAIN  76  48  37 NW18G24   29.78F
6HR MIN TEMP:  53; 6HR MAX TEMP:  76; 6HR PCP: TRACE;

NEWPORT        MOSUNNY   79  50  36 NW20G25   29.80F
6HR MIN TEMP:  53; 6HR MAX TEMP:  79;

WALNUT RIDGE   MOSUNNY   75  45  33 NW21      29.79F
6HR MIN TEMP:  52; 6HR MAX TEMP:  75;

BLYTHEVILLE    PTSUNNY   73  52  47 NW15G25   29.77S
6HR MIN TEMP:  53; 6HR MAX TEMP:  73;

$$

ARZ022-023-033-042-044-041900-
CENTRAL ARKANSAS

CITY           SKY/WX    TMP DP  RH WIND       PRES   REMARKS
LITTLE ROCK    MOSUNNY   80  47  31 NW15G30   29.86F
6HR MIN TEMP:  52; 6HR MAX TEMP:  80;

N LITTLE ROCK    N/A     75  50  41 NW9G24    29.85F
6HR MIN TEMP:  56; 6HR MAX TEMP:  75;

JACKSONVILLE   SUNNY     77  53  42 W23G31    29.84F
6HR MIN TEMP:  50; 6HR MAX TEMP:  77;

SEARCY         SUNNY     75  54  46 W8        29.84F
6HR MIN TEMP:  46; 6HR MAX TEMP:  75;

HOT SPRINGS    SUNNY     78  48  34 W14G23    29.90F
6HR MIN TEMP:  49; 6HR MAX TEMP:  78;

RUSSELLVILLE   SUNNY     76  51  41 W13G26    29.86F
6HR MIN TEMP:  46; 6HR MAX TEMP:  76;

$$

ARZ036-041900-
EAST ARKANSAS

CITY           SKY/WX    TMP DP  RH WIND       PRES   REMARKS
WEST MEMPHIS   SUNNY     73  54  51 W9G22     29.79F
6HR MIN TEMP:  53; 6HR MAX TEMP:  73;

$$

ARZ050-053-066-070-073-041900-
SOUTHWEST ARKANSAS

CITY           SKY/WX    TMP DP  RH WIND       PRES   REMARKS
ARKADELPHIA    FAIR      77  57  49 W15       29.91F
6HR MIN TEMP:  53; 6HR MAX TEMP:  77;

CAMDEN         SUNNY     77  50  38 W10       29.92F
TEXARKANA      SUNNY     77  51  40 W13       29.96F
6HR MIN TEMP:  51; 6HR MAX TEMP:  77;

EL DORADO      SUNNY     76  51  41 W10G21    29.94F
6HR MIN TEMP:  50; 6HR MAX TEMP:  76;

DE QUEEN         N/A     76  57  51 SW9       29.93F
6HR MIN TEMP:  46; 6HR MAX TEMP:  76;

$$

ARZ056-057-069-041900-
SOUTHEAST ARKANSAS

CITY           SKY/WX    TMP DP  RH WIND       PRES   REMARKS
PINE BLUFF     SUNNY     76  51  41 W10       29.87F
6HR MIN TEMP:  52; 6HR MAX TEMP:  76;

STUTTGART      SUNNY     75  54  46 W24       29.85F
6HR MIN TEMP:  55; 6HR MAX TEMP:  75;

MONTICELLO     SUNNY     77  51  40 W14G22    29.89F
6HR MIN TEMP:  52; 6HR MAX TEMP:  77;


$$






USA.gov is the U.S. government's official web portal to all federal, state and local government web resources and services.